Location: Alafon
(8.4500°N, 4.2333°E)
Time: 13:02:44
(UTC+00:00)

SR - Visible Passes

Search period start: 02 August 2021 00:00
Search period end: 12 August 2021 00:00
Orbit: 577 x 877 km, 66.7° (Epoch: 02 August)

Date Brightness Start Highest point End Pass type
(mag) Time Alt. Az. Time Alt. Az. Time Alt. Az.
02 Aug ? 04:29:29 17° SSW 04:34:06 65° WNW 04:39:53 10° NNE visible
03 Aug ? 03:42:02 34° SSE 03:44:21 54° ESE 03:50:03 10° NNE visible
04 Aug ? 02:54:32 23° ESE 02:54:38 23° ESE 02:59:09 10° ENE visible
04 Aug ? 04:34:00 22° WSW 04:36:29 30° WNW 04:41:32 10° N visible
05 Aug ? 03:46:25 70° W 03:46:41 71° WNW 03:52:30 10° NNE visible
06 Aug ? 02:58:45 37° ENE 02:58:45 37° ENE 03:02:34 10° NE visible
06 Aug ? 04:38:12 14° WNW 04:38:57 14° WNW 04:41:51 10° NW visible
07 Aug ? 02:11:01 12° ENE 02:11:01 12° ENE 02:11:31 10° ENE visible
07 Aug ? 03:50:28 29° NW 03:50:28 29° NW 03:54:14 10° N visible
08 Aug ? 03:02:40 27° NNE 03:02:40 27° NNE 03:05:06 10° NNE visible
09 Aug ? 02:14:46 12° NE 02:14:46 12° NE 02:15:05 10° NE visible
09 Aug ? 03:54:12 12° NW 03:54:12 12° NW 03:54:48 10° NNW visible
10 Aug ? 03:06:14 13° N 03:06:14 13° N 03:06:55 10° N visible
